Regional Weather Roundup
Issued by NWS State College, PA

Home | Current Version | Previous Version | Text Only | Print | Product List | Glossary On
Versions: 1 2 3 4 5 6 7 8 9 10 11 12 13 14 15 16 17 18 19 20 21 22 23 24 25 26 27 28 29 30 31 32 33 34 35 36 37 38 39 40 41 42 43 44 45 46 47 48 49 50
000
ASUS41 KCTP 270610
RWRCTP

REGIONAL WEATHER ROUNDUP
NATIONAL WEATHER SERVICE STATE COLLEGE PA
200 AM EDT MON MAR 27 2017

Note: "fair" indicates few or no clouds below 12,000 feet with no
significant weather and/or obstructions to visibility.

* = STATION THAT DOES NOT REPORT PRECIPITATION /E.G. RAIN...SNOW...ETC/
    THUNDER OR FOG.

PAZ002>004-007>009-013>016-020>023-029>032-270700-
WESTERN PENNSYLVANIA

CITY           SKY/WX    TMP DP  RH WIND       PRES   REMARKS
ERIE           CLOUDY    53  48  83 S16       29.90F
MEADVILLE      CLOUDY    49  32  52 VRB5      29.92F
FRANKLIN*      CLOUDY    46  45  93 SE9       29.96F
NEW CASTLE     LGT RAIN  53  52  96 SE10      29.94F
BEAVER COUNTY  NOT AVBL
BUTLER*        CLOUDY    50  48  93 SE5       29.97F
PITTSBURGH INT LGT RAIN  53  53 100 CALM      29.95S FOG
PITTSBURGH     LGT RAIN  52  49  89 S8        29.95F
INDIANA*       CLOUDY    48  46  93 S10G21    30.01F
LATROBE        CLOUDY    54  48  82 S10       29.98F
WASHINGTON CO* MOCLDY    54  52  94 S5        29.97F
$$

PAZ004>006-010>012-017>019-024>028-033>037-041-042-045-046-049>053-270700-
CENTRAL PENNSYLVANIA

CITY           SKY/WX    TMP DP  RH WIND       PRES   REMARKS
BRADFORD       CLOUDY    41  41 100 S10G17    29.98F
DUBOIS         LGT RAIN  43  40  89 SE14      29.98F
CLEARFIELD       N/A    N/A N/A N/A MISG      30.04F
JOHNSTOWN      CLOUDY    42  42 100 S7        30.01F
ALTOONA        LGT RAIN  45  43  93 SE5       30.09F
STATE COLLEGE  RAIN      41  38  90 CALM      30.10S
WILLIAMSPORT   LGT RAIN  41  38  89 NE9       30.14F
SELINSGROVE    LGT RAIN  40  39  97 SE3       30.16F FOG
FT INDIANTOWN  LGT RAIN  39  39 100 E6        30.17F FOG
CAPITAL CITY   LGT RAIN  43  40  89 E7        30.17F FOG
HARRISBURG     LGT RAIN  42  42 100 E8        30.17F FOG
YORK           LGT RAIN  42  42 100 E5        30.16F FOG
$$

PAZ038>040-043-044-047-048-054-055-060>062-067>071-270700-
EASTERN PENNSYLVANIA

CITY           SKY/WX    TMP DP  RH WIND       PRES   REMARKS
SCRANTON       LGT RAIN  39  36  89 NE7       30.15F
MOUNT POCONO   FOG       32  32 100 E9        30.15F VSB 1/4
ALLENTOWN      LGT RAIN  40  37  89 E8        30.21F FOG
QUAKERTOWN*    CLOUDY    39  39 100 E5        30.21F
READING        CLOUDY    40  40 100 NE7       30.18F
LANCASTER      CLOUDY    41  41 100 E6        30.18F FOG
COATESVILLE    FOG       39  39 100 E15G21    30.18F VSB<1/4
POTTSTOWN      CLOUDY    39  38  96 E6        30.21F FOG
BLUE BELL      CLOUDY    37  37 100 E7        30.20F
DOYLESTOWN     LGT RAIN  38  38 100 VRB5      30.20F
WILLOW GROVE   NOT AVBL
NORTH PHILA    CLOUDY    42  41  96 E9        30.23F FOG
PHILADELPHIA   CLOUDY    42  40  92 E8        30.21F FOG
$$




USA.gov is the U.S. government's official web portal to all federal, state and local government web resources and services.